CYGFM02

Last updated on Thu Jul 03 2025 00:02:22 GMT+0000 (Coordinated Universal Time)

1 41886U 16078C 25183.57774198 .00011335 00000+0 24229-3 0 9990 2 41886 34.9456 5.5726 0009312 115.4523 244.7161 15.43937244474788
UTC large
Height (km)
Speed (km/s)
/
Latitude / Longitude
Inclination (degrees)
Orbital Period (minutes)
Azimuth
Elevation
Range (km)
Doppler Factor

Next 0 passes for location: London (51.5072 / 0.1276)

Sorry there are no passes over London.